Total_Precipitation_Accumulation
0.76 1.05 1.14 0.96 0.96 1.02 0.95 0.98 1.03 0.97 0.84 0.93 0.93 0.88 0.94 0.87 0.69 0.58 0.57 0.60 0.55 0.51 0.52 0.47 0.44 0.51 0.51 0.46 0.43 0.49 0.55 0.59 0.59 0.69 0.83 0.94 1.05 1.20 1.39 1.46 1.52 1.66 1.70 1.71
0.83 0.87 0.72 0.73 0.78 0.86 0.87 0.90 0.92 0.83 0.72 0.77 0.85 0.89 0.89 0.81 0.72 0.62 0.56 0.47 0.45 0.44 0.43 0.39 0.38 0.40 0.42 0.43 0.42 0.45 0.56 0.65 0.67 0.73 0.87 1.05 1.30 1.38 1.53 1.74 1.73 1.73 1.78 1.84
0.72 0.62 0.56 0.64 0.75 0.81 0.84 0.80 0.75 0.77 0.75 0.74 0.81 1.02 0.95 0.86 0.71 0.60 0.52 0.43 0.35 0.38 0.36 0.30 0.33 0.38 0.38 0.41 0.49 0.52 0.64 0.82 0.99 1.07 1.30 1.62 1.87 1.92 1.85 1.89 1.96 1.96 1.97 2.04
0.76 0.55 0.54 0.64 0.68 0.71 0.86 0.61 0.55 0.66 0.82 0.95 0.78 1.14 0.94 0.83 0.75 0.58 0.51 0.45 0.37 0.40 0.44 0.36 0.34 0.38 0.38 0.43 0.57 0.75 0.95 1.24 1.46 1.57 1.74 2.01 2.14 2.17 2.07 2.07 2.08 2.11 2.04 1.97
0.75 0.58 0.57 0.64 0.60 0.56 0.68 0.56 0.56 0.66 0.78 0.83 0.69 0.85 0.82 0.68 0.76 0.65 0.59 0.53 0.47 0.48 0.48 0.49 0.48 0.54 0.55 0.66 0.88 1.23 1.51 1.71 1.84 1.87 1.92 2.15 2.30 2.46 2.48 2.35 2.20 2.15 2.16 2.11
0.67 0.58 0.61 0.64 0.56 0.50 0.58 0.66 0.70 0.72 0.84 0.99 0.66 0.68 0.83 0.67 0.64 0.66 0.66 0.58 0.53 0.52 0.54 0.65 0.78 0.91 0.98 1.08 1.31 1.55 1.71 1.86 1.84 1.81 1.83 1.96 2.16 2.33 2.35 2.37 2.34 2.25 2.18 2.11
0.69 0.64 0.58 0.53 0.61 0.61 0.66 0.87 1.14 1.16 1.13 0.95 0.55 0.66 0.71 0.51 0.47 0.54 0.60 0.60 0.56 0.53 0.63 0.86 1.04 1.18 1.27 1.38 1.50 1.56 1.55 1.64 1.67 1.64 1.66 1.72 1.79 1.82 1.86 1.99 1.93 1.82 1.73 1.68
0.57 0.62 0.51 0.44 0.48 0.56 0.60 0.67 1.02 1.15 1.01 0.84 0.63 0.82 0.72 0.53 0.52 0.46 0.50 0.58 0.66 0.77 0.90 1.04 1.15 1.27 1.32 1.45 1.52 1.49 1.45 1.43 1.37 1.33 1.40 1.43 1.45 1.51 1.50 1.49 1.47 1.39 1.35 1.33
0.44 0.48 0.39 0.36 0.35 0.43 0.52 0.53 0.58 0.79 0.75 0.81 0.73 0.82 0.74 0.53 0.51 0.47 0.48 0.58 0.72 0.90 1.15 1.33 1.33 1.26 1.22 1.28 1.36 1.34 1.28 1.23 1.14 1.07 1.12 1.19 1.30 1.29 1.22 1.16 1.11 1.12 1.04 1.05
0.36 0.47 0.44 0.39 0.38 0.41 0.42 0.47 0.61 0.91 1.07 1.07 0.85 0.92 0.88 0.67 0.60 0.55 0.58 0.70 0.86 1.03 1.25 1.53 1.64 1.52 1.28 1.12 1.15 1.12 1.11 1.16 1.16 1.12 1.12 1.11 1.05 0.98 0.94 0.93 0.86 0.86 0.91 0.93
0.30 0.41 0.43 0.41 0.41 0.43 0.43 0.51 0.64 0.83 0.86 1.13 1.36 1.31 0.97 0.82 0.76 0.74 0.77 0.84 0.92 1.17 1.46 1.59 1.62 1.49 1.34 1.07 1.01 1.00 1.00 1.06 1.14 1.09 1.11 1.09 0.98 0.85 0.80 0.75 0.69 0.70 0.74 0.78
0.28 0.40 0.42 0.36 0.34 0.31 0.38 0.48 0.67 1.01 0.99 0.95 1.18 1.20 0.77 0.80 0.91 0.84 0.90 0.97 1.00 1.10 1.16 1.17 1.27 1.30 1.22 1.07 1.00 1.06 1.11 1.13 1.10 1.07 1.05 1.01 0.94 0.85 0.83 0.76 0.67 0.69 0.74 0.75
0.29 0.40 0.49 0.48 0.43 0.38 0.48 0.54 0.52 0.72 0.90 0.93 1.12 1.12 0.69 0.68 0.81 0.85 0.94 0.97 0.97 0.97 0.91 0.86 0.97 1.13 1.07 0.99 1.01 1.10 1.23 1.26 1.20 1.10 1.02 1.01 0.96 0.94 0.96 0.83 0.74 0.74 0.81 0.92
0.24 0.32 0.37 0.43 0.40 0.44 0.69 0.77 0.58 0.71 0.93 0.79 0.75 0.82 0.65 0.62 0.73 0.81 0.89 0.91 0.88 0.81 0.76 0.73 0.68 0.74 0.77 0.79 0.79 0.91 1.17 1.40 1.37 1.25 1.13 1.08 1.08 1.11 1.08 0.93 0.85 0.79 0.79 0.82
0.25 0.27 0.20 0.18 0.20 0.26 0.48 0.53 0.45 0.48 0.49 0.56 0.51 0.54 0.63 0.69 0.74 0.77 0.78 0.71 0.64 0.63 0.59 0.54 0.50 0.49 0.49 0.54 0.63 0.76 1.07 1.29 1.29 1.26 1.11 1.02 0.99 0.97 0.93 0.93 0.98 0.91 0.79 0.73
0.24 0.25 0.18 0.16 0.16 0.18 0.21 0.16 0.16 0.20 0.26 0.34 0.40 0.51 0.55 0.59 0.61 0.69 0.68 0.53 0.52 0.54 0.53 0.51 0.46 0.41 0.37 0.37 0.44 0.56 0.76 0.96 1.05 1.07 1.00 0.89 0.89 0.86 0.78 0.82 0.94 0.97 0.84 0.76
0.26 0.28 0.29 0.23 0.18 0.20 0.18 0.11 0.18 0.22 0.25 0.30 0.43 0.56 0.60 0.62 0.69 1.02 1.04 0.72 0.57 0.57 0.52 0.53 0.51 0.47 0.43 0.41 0.42 0.45 0.53 0.67 0.77 0.81 0.78 0.68 0.70 0.83 0.86 0.90 0.89 0.81 0.72 0.74
0.24 0.30 0.38 0.31 0.30 0.35 0.19 0.11 0.17 0.21 0.24 0.25 0.29 0.32 0.37 0.49 0.63 0.80 0.88 0.74 0.61 0.58 0.51 0.50 0.49 0.43 0.42 0.42 0.43 0.48 0.49 0.52 0.56 0.55 0.54 0.50 0.57 0.74 0.78 0.74 0.71 0.65 0.63 0.67
0.18 0.29 0.42 0.39 0.47 0.36 0.15 0.11 0.13 0.15 0.17 0.16 0.19 0.18 0.20 0.24 0.25 0.26 0.29 0.33 0.34 0.32 0.29 0.31 0.35 0.32 0.30 0.31 0.34 0.36 0.35 0.39 0.39 0.38 0.39 0.46 0.49 0.51 0.52 0.50 0.51 0.56 0.61 0.62
0.19 0.24 0.40 0.45 0.50 0.37 0.17 0.10 0.09 0.14 0.23 0.15 0.15 0.14 0.12 0.15 0.21 0.18 0.21 0.16 0.12 0.14 0.16 0.22 0.32 0.35 0.29 0.29 0.33 0.32 0.33 0.36 0.36 0.36 0.40 0.43 0.47 0.50 0.49 0.49 0.49 0.52 0.56 0.61
0.26 0.30 0.33 0.38 0.48 0.28 0.14 0.12 0.11 0.22 0.22 0.11 0.09 0.08 0.07 0.09 0.12 0.12 0.16 0.15 0.11 0.14 0.16 0.20 0.26 0.33 0.31 0.30 0.31 0.31 0.32 0.35 0.41 0.43 0.42 0.42 0.45 0.49 0.53 0.54 0.53 0.52 0.53 0.57
0.28 0.36 0.32 0.32 0.41 0.32 0.14 0.14 0.20 0.20 0.12 0.09 0.09 0.08 0.08 0.08 0.08 0.09 0.11 0.13 0.11 0.12 0.14 0.17 0.21 0.30 0.32 0.33 0.34 0.37 0.36 0.37 0.42 0.45 0.43 0.43 0.47 0.49 0.52 0.59 0.58 0.56 0.57 0.56
0.23 0.27 0.32 0.32 0.30 0.20 0.15 0.16 0.17 0.17 0.14 0.12 0.11 0.09 0.08 0.08 0.08 0.09 0.10 0.15 0.10 0.10 0.15 0.17 0.19 0.26 0.32 0.35 0.39 0.41 0.40 0.39 0.41 0.42 0.46 0.48 0.50 0.49 0.48 0.52 0.55 0.56 0.57 0.57
0.18 0.17 0.24 0.24 0.17 0.13 0.15 0.16 0.15 0.14 0.13 0.13 0.13 0.14 0.12 0.11 0.10 0.11 0.11 0.14 0.12 0.10 0.10 0.13 0.15 0.20 0.29 0.35 0.37 0.43 0.44 0.44 0.45 0.47 0.51 0.54 0.55 0.54 0.52 0.53 0.57 0.60 0.60 0.60
0.14 0.17 0.21 0.22 0.14 0.11 0.12 0.14 0.16 0.14 0.13 0.13 0.13 0.15 0.15 0.15 0.15 0.13 0.13 0.13 0.12 0.14 0.14 0.13 0.14 0.17 0.23 0.30 0.34 0.41 0.45 0.49 0.48 0.49 0.55 0.60 0.60 0.59 0.59 0.60 0.60 0.60 0.59 0.62
0.08 0.12 0.19 0.19 0.14 0.13 0.12 0.12 0.14 0.17 0.15 0.13 0.12 0.13 0.14 0.15 0.15 0.14 0.14 0.13 0.14 0.14 0.14 0.15 0.15 0.16 0.18 0.22 0.26 0.32 0.36 0.43 0.49 0.52 0.52 0.52 0.58 0.61 0.58 0.57 0.57 0.60 0.61 0.65